WB4YDL Weather Reports


Display with metric or nautical units.
time (UTC)temp
F
wind
direction
speed
MPH
gust
MPH
rain 1hr
in
rain 24hr
in
rain mn
in
humidity
%
barometer
mb
20260906120136 74 238 0.0 0.0 0.00 0.00 0.00 99 1008.0
20260906115631 74 238 0.0 0.0 0.00 0.00 0.00 99 1008.0
20260906115126 74 238 0.0 0.0 0.00 0.00 0.00 99 1008.0
20260906114619 74 238 0.0 0.0 0.00 0.00 0.00 99 1007.7
20260906114115 74 238 0.0 0.0 0.00 0.00 0.00 99 1007.8
20260906113615 74 238 0.0 0.0 0.00 0.00 0.00 99 1007.7
20260906113109 74 238 0.0 0.0 0.00 0.00 0.00 99 1007.4
20260906112604 74 238 0.0 0.0 0.00 0.00 0.00 99 1007.5
20260906112101 74 239 0.0 0.0 0.00 0.00 0.00 99 1007.6
20260906111600 74 239 0.0 0.0 0.00 0.00 0.00 99 1007.5
20260906111055 74 237 0.0 1.0 0.00 0.00 0.00 99 1007.6
20260906110554 74 239 0.0 0.0 0.00 0.00 0.00 99 1007.6
20260906110054 74 239 0.0 0.0 0.00 0.00 0.00 99 1007.4
20260906105548 74 239 0.0 0.0 0.00 0.00 0.00 99 1007.2
20260906105045 74 239 0.0 0.0 0.00 0.00 0.00 99 1007.3
20260906104543 74 239 0.0 0.0 0.00 0.00 0.00 99 1006.9
20260906104038 74 239 0.0 0.0 0.00 0.00 0.00 99 1007.2
20260906103536 74 239 1.0 1.0 0.00 0.00 0.00 99 1007.0
20260906103031 74 239 0.0 0.0 0.00 0.00 0.00 99 1007.0
20260906102526 74 239 0.0 0.0 0.00 0.00 0.00 99 1007.0
20260906102021 74 240 1.0 1.0 0.00 0.00 0.00 99 1007.0
20260906101521 75 230 1.0 1.0 0.00 0.00 0.00 99 1006.8
20260906101016 75 229 1.0 1.0 0.00 0.00 0.00 99 1006.6
20260906100511 75 229 0.0 0.0 0.00 0.00 0.00 99 1006.4
20260906100006 75 229 0.0 0.0 0.00 0.00 0.00 99 1006.7
20260906095501 75 229 0.0 0.0 0.00 0.00 0.00 99 1006.9
20260906094956 74 229 0.0 0.0 0.00 0.00 0.00 99 1006.8
20260906094455 74 229 0.0 0.0 0.00 0.00 0.00 99 1006.8
20260906093952 74 229 0.0 0.0 0.00 0.00 0.00 99 1006.7
20260906093447 74 229 0.0 0.0 0.00 0.00 0.00 99 1006.7
20260906092942 74 229 0.0 0.0 0.00 0.00 0.00 99 1006.6
20260906092441 75 229 0.0 0.0 0.00 0.00 0.00 99 1006.6
20260906091936 75 230 1.0 1.0 0.00 0.00 0.00 99 1006.7
20260906091432 75 222 0.0 0.0 0.00 0.00 0.00 99 1006.8
20260906090929 75 218 0.0 0.0 0.00 0.00 0.00 99 1006.5
20260906090424 75 203 1.0 1.0 0.00 0.00 0.00 99 1006.7
20260906085919 75 203 1.0 1.0 0.00 0.00 0.00 99 1006.7
20260906085417 75 211 1.0 1.0 0.00 0.00 0.00 99 1006.6
20260906084917 75 213 0.0 0.0 0.00 0.00 0.00 99 1006.8
20260906084412 75 210 0.0 1.0 0.00 0.00 0.00 99 1006.7
20260906083911 75 205 0.0 0.0 0.00 0.00 0.00 99 1006.6
20260906083407 75 205 0.0 0.0 0.00 0.00 0.00 99 1006.4
20260906082906 75 205 0.0 0.0 0.00 0.00 0.00 99 1006.8
20260906082401 75 206 0.0 0.0 0.00 0.00 0.00 99 1006.7
20260906081858 76 205 0.0 0.0 0.00 0.00 0.00 99 1006.6
20260906081353 76 204 1.0 1.0 0.00 0.00 0.00 99 1006.6
20260906080849 76 225 0.0 1.0 0.00 0.00 0.00 99 1006.5
20260906080345 76 226 0.0 0.0 0.00 0.00 0.00 99 1006.8
20260906075844 76 226 0.0 0.0 0.00 0.00 0.00 99 1006.8
20260906075339 76 227 0.0 0.0 0.00 0.00 0.00 99 1006.7
20260906074835 76 227 0.0 0.0 0.00 0.00 0.00 99 1006.5
20260906074334 76 226 0.0 0.0 0.00 0.00 0.00 99 1006.5
20260906073833 76 226 0.0 0.0 0.00 0.00 0.00 99 1006.6
20260906073328 76 226 0.0 0.0 0.00 0.00 0.00 99 1006.5
20260906072825 76 227 0.0 0.0 0.00 0.00 0.00 99 1006.4
20260906072320 77 227 0.0 0.0 0.00 0.00 0.00 99 1006.5
20260906071816 76 226 0.0 0.0 0.00 0.00 0.00 99 1006.3
20260906071316 76 227 0.0 0.0 0.00 0.00 0.00 99 1006.5
20260906070812 76 226 0.0 0.0 0.00 0.00 0.00 99 1006.2
20260906070308 76 227 0.0 0.0 0.00 0.00 0.00 99 1006.4
20260906065802 77 228 1.0 1.0 0.00 0.00 0.00 99 1006.4
20260906065257 77 223 1.0 1.0 0.00 0.00 0.00 99 1006.5
20260906064753 77 219 1.0 1.0 0.00 0.00 0.00 99 1006.6
20260906064249 77 217 0.0 0.0 0.00 0.00 0.00 99 1006.5
20260906063744 77 217 0.0 0.0 0.00 0.00 0.00 99 1006.6
20260906063239 77 216 1.0 1.0 0.00 0.00 0.00 99 1006.9
20260906062734 77 219 0.0 1.0 0.00 0.00 0.00 99 1006.8
20260906062233 77 221 0.0 0.0 0.00 0.00 0.00 99 1006.9
20260906061729 77 222 0.0 0.0 0.00 0.00 0.00 99 1007.0
20260906061226 77 222 0.0 1.0 0.00 0.00 0.00 99 1007.0
20260906060721 77 194 0.0 0.0 0.00 0.00 0.00 99 1007.0
20260906060218 77 195 0.0 0.0 0.00 0.00 0.00 99 1007.0
20260906055714 77 193 0.0 0.0 0.00 0.00 0.00 99 1006.8
20260906055209 77 193 0.0 0.0 0.00 0.00 0.00 99 1007.3
20260906054703 77 223 0.0 0.0 0.00 0.00 0.00 99 1006.9
20260906054159 77 224 0.0 0.0 0.00 0.00 0.00 99 1007.2
20260906053655 77 224 0.0 1.0 0.00 0.00 0.00 99 1006.9
20260906053150 78 208 1.0 1.0 0.00 0.00 0.00 99 1007.2
20260906052645 78 232 0.0 0.0 0.00 0.00 0.00 99 1007.0
20260906052142 78 233 0.0 0.0 0.00 0.00 0.00 99 1006.9
20260906051638 78 233 0.0 1.0 0.00 0.00 0.00 99 1007.2
20260906051137 78 234 0.0 0.0 0.00 0.00 0.00 99 1007.0
20260906050633 78 222 0.0 0.0 0.00 0.00 0.00 99 1006.9
20260906050128 78 222 0.0 0.0 0.00 0.00 0.00 98 1007.3
20260906045627 78 219 0.0 0.0 0.00 0.00 0.00 99 1006.9
20260906045122 78 260 0.0 0.0 0.00 0.00 0.00 99 1007.4
20260906044618 78 272 1.0 1.0 0.00 0.00 0.00 99 1007.3
20260906044113 78 138 1.0 1.0 0.00 0.00 0.00 98 1007.0
20260906043609 78 210 0.0 0.0 0.00 0.00 0.00 98 1007.2
20260906043104 79 211 0.0 0.0 0.00 0.00 0.00 98 1007.0
20260906042603 79 211 0.0 0.0 0.00 0.00 0.00 97 1007.0
20260906042058 79 210 0.0 0.0 0.00 0.00 0.00 98 1007.3
20260906041555 79 211 0.0 1.0 0.00 0.00 0.00 98 1007.2
20260906041049 79 213 0.0 0.0 0.00 0.00 0.00 98 1006.8
20260906040544 79 212 0.0 0.0 0.00 0.00 0.00 99 1006.9
20260906040040 79 212 0.0 0.0 0.00 0.00 0.00 98 1006.9
20260906035535 79 212 0.0 0.0 0.00 0.00 0.00 98 1007.0
20260906035031 79 212 0.0 0.0 0.00 0.00 0.00 97 1006.8
20260906034530 79 212 0.0 0.0 0.00 0.00 0.00 98 1006.9
20260906034026 79 212 0.0 0.0 0.00 0.00 0.00 97 1006.7
20260906033521 79 212 0.0 0.0 0.00 0.00 0.00 97 1007.0
20260906033016 79 212 0.0 0.0 0.00 0.00 0.00 97 1007.0
20260906032512 79 212 0.0 0.0 0.00 0.00 0.00 97 1006.8
20260906032007 80 212 0.0 0.0 0.00 0.00 0.00 97 1006.9
20260906031503 80 218 0.0 1.0 0.00 0.00 0.00 97 1006.7
20260906030957 80 219 0.0 0.0 0.00 0.00 0.00 96 1006.6
20260906030451 80 209 0.0 0.0 0.00 0.00 0.00 96 1006.6
20260906025946 80 209 0.0 0.0 0.00 0.00 0.00 96 1006.8
20260906025440 80 209 0.0 0.0 0.00 0.00 0.00 96 1006.8
20260906024939 80 209 0.0 0.0 0.00 0.00 0.00 95 1006.6
20260906024438 80 209 0.0 0.0 0.00 0.00 0.00 95 1006.6
20260906023933 80 209 0.0 0.0 0.00 0.00 0.00 94 1006.6
20260906023429 80 209 0.0 0.0 0.00 0.00 0.00 94 1006.6
20260906022924 80 208 0.0 0.0 0.00 0.00 0.00 94 1006.3
20260906022420 81 208 0.0 0.0 0.00 0.00 0.00 94 1006.4
20260906021915 81 209 0.0 1.0 0.00 0.00 0.00 94 1006.4
20260906021414 81 209 0.0 0.0 0.00 0.00 0.00 93 1006.3
20260906020909 81 209 0.0 0.0 0.00 0.00 0.00 93 1006.3
20260906020403 82 209 0.0 1.0 0.00 0.00 0.00 92 1006.1
20260906015858 82 231 0.0 0.0 0.00 0.00 0.00 91 1006.1
20260906015356 82 232 0.0 1.0 0.00 0.00 0.00 91 1006.2
20260906014851 82 197 0.0 0.0 0.00 0.00 0.00 90 1006.0
20260906014351 83 196 0.0 0.0 0.00 0.00 0.00 90 1006.1
20260906013847 83 197 0.0 1.0 0.00 0.00 0.00 91 1005.9
20260906013343 83 197 0.0 0.0 0.00 0.00 0.00 88 1005.7
20260906012838 83 197 0.0 0.0 0.00 0.00 0.00 88 1006.0
20260906012333 83 198 1.0 1.0 0.00 0.00 0.00 88 1005.8
20260906011833 84 197 0.0 0.0 0.00 0.00 0.00 88 1006.0
20260906011327 84 199 0.0 0.0 0.00 0.00 0.00 88 1005.9
20260906010823 84 171 0.0 0.0 0.00 0.00 0.00 87 1005.8
20260906010320 84 171 0.0 0.0 0.00 0.00 0.00 87 1005.8
20260906005814 84 171 0.0 0.0 0.00 0.00 0.00 83 1005.6
20260906005313 85 171 0.0 0.0 0.00 0.00 0.00 83 1005.8
20260906004812 86 171 0.0 0.0 0.00 0.00 0.00 84 1005.4
20260906004313 86 171 0.0 0.0 0.00 0.00 0.00 85 1005.6
20260906003808 87 171 0.0 0.0 0.00 0.00 0.00 80 1005.4
20260906003303 87 171 0.0 0.0 0.00 0.00 0.00 79 1005.5
20260906002759 87 171 0.0 0.0 0.00 0.00 0.00 79 1005.3
20260906002258 88 171 0.0 0.0 0.00 0.00 0.00 78 1005.8
20260906001754 89 171 0.0 0.0 0.00 0.00 0.00 80 1005.6
20260906001248 90 171 1.0 1.0 0.00 0.00 0.00 77 1005.5
20260906000743 91 170 1.0 1.0 0.00 0.00 0.00 74 1005.7
20260906000238 92 222 0.0 0.0 0.00 0.00 0.00 72 1005.8
20260905235733 92 222 0.0 1.0 0.00 0.00 0.00 73 1005.7
20260905235233 93 272 0.0 0.0 0.00 0.00 0.00 66 1005.8
20260905234729 94 281 0.0 0.0 0.00 0.00 0.00 60 1005.9
20260905234224 96 320 0.0 1.0 0.00 0.00 0.00 62 1005.8
20260905233719 96 321 0.0 1.0 0.00 0.00 0.00 55 1005.6
20260905233218 96 321 1.0 1.0 0.00 0.00 0.00 54 1005.8
20260905232713 97 321 1.0 1.0 0.00 0.00 0.00 52 1005.9
20260905232209 98 298 2.0 2.0 0.00 0.00 0.00 50 1006.0
20260905231705 98 290 2.0 2.0 0.00 0.00 0.00 51 1006.0
20260905231200 98 302 1.0 1.0 0.00 0.00 0.00 54 1005.9
20260905230656 98 302 1.0 1.0 0.00 0.00 0.00 51 1005.8
20260905230154 99 346 2.0 2.0 0.00 0.00 0.00 54 1005.7
20260905225653 99 350 1.0 1.0 0.00 0.00 0.00 50 1005.7
20260905225148 99 309 2.0 2.0 0.00 0.00 0.00 50 1005.7
20260905224648 99 324 2.0 2.0 0.00 0.00 0.00 51 1005.7
20260905224142 99 238 0.0 1.0 0.00 0.00 0.00 51 1005.5
20260905223639 99 276 2.0 2.0 0.00 0.00 0.00 49 1005.6
20260905223136 100 344 3.0 3.0 0.00 0.00 0.00 52 1005.7
20260905222631 100 295 2.0 2.0 0.00 0.00 0.00 50 1005.8
20260905222126 100 290 2.0 2.0 0.00 0.00 0.00 52 1005.7
20260905221621 100 260 1.0 2.0 0.00 0.00 0.00 48 1005.6
20260905221118 100 271 3.0 4.0 0.00 0.00 0.00 48 1005.6
20260905220613 100 290 2.0 2.0 0.00 0.00 0.00 49 1005.7
20260905220109 100 308 3.0 6.0 0.00 0.00 0.00 49 1005.8
20260905215609 100 280 2.0 3.0 0.00 0.00 0.00 48 1005.8
20260905215104 100 292 2.0 2.0 0.00 0.00 0.00 49 1005.9
20260905214600 100 271 1.0 1.0 0.00 0.00 0.00 50 1005.9
20260905214055 99 194 2.0 2.0 0.00 0.00 0.00 48 1005.8
20260905213550 101 284 3.0 3.0 0.00 0.00 0.00 51 1006.0
20260905213046 101 272 1.0 2.0 0.00 0.00 0.00 49 1005.7
20260905212545 101 255 2.0 2.0 0.00 0.00 0.00 46 1005.8
20260905212045 101 271 2.0 2.0 0.00 0.00 0.00 49 1005.9
20260905211540 101 355 3.0 3.0 0.00 0.00 0.00 48 1006.0
20260905211036 100 48 3.0 3.0 0.00 0.00 0.00 47 1006.1
20260905210531 101 326 2.0 2.0 0.00 0.00 0.00 47 1006.1
20260905210026 101 245 3.0 3.0 0.00 0.00 0.00 45 1006.2
20260905205525 101 336 2.0 3.0 0.00 0.00 0.00 51 1006.2
20260905205025 102 239 2.0 2.0 0.00 0.00 0.00 47 1006.1
20260905204520 100 251 1.0 1.0 0.00 0.00 0.00 47 1006.3
20260905204015 102 238 1.0 1.0 0.00 0.00 0.00 46 1006.1
20260905203510 101 33 0.0 1.0 0.00 0.00 0.00 47 1006.2
20260905203005 101 302 2.0 3.0 0.00 0.00 0.00 47 1006.2
20260905202500 102 207 1.0 1.0 0.00 0.00 0.00 49 1006.6
20260905201955 100 193 3.0 3.0 0.00 0.00 0.00 49 1006.4
20260905201451 100 205 1.0 1.0 0.00 0.00 0.00 48 1006.6
20260905200950 99 179 1.0 1.0 0.00 0.00 0.00 49 1006.7
20260905200446 99 128 1.0 1.0 0.00 0.00 0.00 48 1006.8
20260905195944 98 150 2.0 2.0 0.00 0.00 0.00 52 1006.7
20260905195440 99 168 2.0 3.0 0.00 0.00 0.00 49 1006.9
20260905194935 101 251 0.0 0.0 0.00 0.00 0.00 45 1007.0
20260905194435 102 166 2.0 3.0 0.00 0.00 0.00 46 1007.2
20260905193935 101 189 1.0 1.0 0.00 0.00 0.00 45 1007.3
20260905193430 100 280 1.0 1.0 0.00 0.00 0.00 46 1007.6
20260905192930 99 36 2.0 2.0 0.00 0.00 0.00 49 1007.4
20260905192425 101 204 1.0 1.0 0.00 0.00 0.00 46 1007.5
20260905191921 100 56 1.0 1.0 0.00 0.00 0.00 51 1007.6
20260905191419 100 249 2.0 2.0 0.00 0.00 0.00 48 1007.8
20260905190914 99 295 2.0 3.0 0.00 0.00 0.00 50 1007.8
20260905190412 98 106 4.0 4.0 0.00 0.00 0.00 49 1008.0
20260905185910 100 126 4.0 4.0 0.00 0.00 0.00 49 1008.1
20260905185406 99 79 0.0 1.0 0.00 0.00 0.00 49 1008.0
20260905184904 99 320 5.0 6.0 0.00 0.00 0.00 49 1008.1
20260905184359 100 310 1.0 1.0 0.00 0.00 0.00 49 1008.1
20260905183857 100 110 5.0 6.0 0.00 0.00 0.00 45 1008.3
20260905183353 100 30 2.0 2.0 0.00 0.00 0.00 50 1008.2
20260905182847 99 51 4.0 4.0 0.00 0.00 0.00 50 1008.2
20260905182342 98 280 1.0 2.0 0.00 0.00 0.00 50 1008.1
20260905181837 98 327 6.0 7.0 0.00 0.00 0.00 50 1008.2
20260905181337 99 302 4.0 4.0 0.00 0.00 0.00 50 1008.1
20260905180836 99 314 4.0 4.0 0.00 0.00 0.00 49 1008.3
20260905180331 98 244 2.0 2.0 0.00 0.00 0.00 53 1008.4
20260905175826 98 91 1.0 2.0 0.00 0.00 0.00 52 1008.3
20260905175320 98 82 1.0 2.0 0.00 0.00 0.00 54 1008.5
20260905174815 97 286 2.0 2.0 0.00 0.00 0.00 51 1008.7
20260905174311 97 349 2.0 2.0 0.00 0.00 0.00 57 1008.6
20260905173807 97 22 3.0 3.0 0.00 0.00 0.00 53 1008.5
20260905173303 97 296 1.0 2.0 0.00 0.00 0.00 56 1008.5
20260905172803 97 250 2.0 3.0 0.00 0.00 0.00 54 1008.5
20260905172301 98 290 3.0 3.0 0.00 0.00 0.00 55 1008.6
20260905171757 98 184 1.0 1.0 0.00 0.00 0.00 55 1008.7
20260905171253 98 248 1.0 2.0 0.00 0.00 0.00 52 1008.8
20260905170749 96 201 1.0 2.0 0.00 0.00 0.00 52 1009.0
20260905170245 98 347 2.0 4.0 0.00 0.00 0.00 55 1008.9
20260905165744 97 314 0.0 0.0 0.00 0.00 0.00 54 1008.7
20260905165240 96 301 2.0 2.0 0.00 0.00 0.00 55 1008.9
20260905164740 98 357 5.0 6.0 0.00 0.00 0.00 56 1009.0
20260905164235 96 296 2.0 2.0 0.00 0.00 0.00 54 1009.2
20260905163730 97 322 4.0 4.0 0.00 0.00 0.00 61 1009.0
20260905163227 96 259 2.0 2.0 0.00 0.00 0.00 57 1009.2
20260905162722 98 303 4.0 6.0 0.00 0.00 0.00 56 1009.2
20260905162222 97 278 2.0 2.0 0.00 0.00 0.00 63 1009.2
20260905161717 97 271 2.0 3.0 0.00 0.00 0.00 58 1009.2
20260905161215 97 232 3.0 3.0 0.00 0.00 0.00 60 1009.2
20260905160713 97 310 3.0 3.0 0.00 0.00 0.00 58 1009.3
20260905160208 96 3 2.0 3.0 0.00 0.00 0.00 63 1009.6
20260905155708 96 299 2.0 3.0 0.00 0.00 0.00 62 1009.4
20260905155207 96 74 0.0 1.0 0.00 0.00 0.00 61 1009.4
20260905154656 95 115 1.0 1.0 0.00 0.00 0.00 63 1009.4
20260905154151 94 120 2.0 2.0 0.00 0.00 0.00 66 1009.5
20260905153647 95 152 0.0 1.0 0.00 0.00 0.00 64 1009.4
20260905153143 94 144 1.0 1.0 0.00 0.00 0.00 65 1009.6
20260905152637 95 209 1.0 1.0 0.00 0.00 0.00 65 1009.4
20260905152132 94 203 2.0 3.0 0.00 0.00 0.00 66 1009.7
20260905151627 94 198 1.0 1.0 0.00 0.00 0.00 65 1009.7
20260905151122 95 109 1.0 2.0 0.00 0.00 0.00 64 1009.4
20260905150618 94 347 1.0 1.0 0.00 0.00 0.00 66 1009.3
20260905150116 93 137 1.0 1.0 0.00 0.00 0.00 67 1009.5
20260905145615 93 308 2.0 2.0 0.00 0.00 0.00 67 1009.5
20260905145114 93 272 2.0 2.0 0.00 0.00 0.00 67 1009.5
20260905144609 92 260 0.0 1.0 0.00 0.00 0.00 68 1009.4
20260905144108 92 348 3.0 3.0 0.00 0.00 0.00 71 1009.5
20260905143602 91 18 2.0 2.0 0.00 0.00 0.00 70 1009.5
20260905143057 92 357 1.0 1.0 0.00 0.00 0.00 72 1009.4
20260905142555 91 329 1.0 2.0 0.00 0.00 0.00 71 1009.5
20260905142050 90 234 1.0 1.0 0.00 0.00 0.00 73 1009.5
20260905141545 89 267 1.0 1.0 0.00 0.00 0.00 74 1009.5
20260905141041 88 233 1.0 1.0 0.00 0.00 0.00 76 1009.3
20260905140536 88 255 2.0 2.0 0.00 0.00 0.00 75 1009.4
20260905140035 87 243 2.0 2.0 0.00 0.00 0.00 78 1009.4
20260905135531 87 254 2.0 2.0 0.00 0.00 0.00 78 1009.3
20260905135025 87 281 1.0 1.0 0.00 0.00 0.00 79 1009.3
20260905134520 87 245 2.0 3.0 0.00 0.00 0.00 79 1009.4
20260905134019 86 239 0.0 1.0 0.00 0.00 0.00 81 1009.3
20260905133514 86 247 1.0 1.0 0.00 0.00 0.00 82 1008.9
20260905133014 86 226 0.0 1.0 0.00 0.00 0.00 81 1009.3
20260905132508 86 225 0.0 0.0 0.00 0.00 0.00 82 1009.1
20260905132003 85 215 0.0 0.0 0.00 0.00 0.00 83 1009.2
20260905131459 84 214 0.0 0.0 0.00 0.00 0.00 84 1008.9
20260905130954 84 215 0.0 0.0 0.00 0.00 0.00 86 1009.1
20260905130453 83 215 0.0 0.0 0.00 0.00 0.00 91 1008.9
20260905125953 82 215 0.0 0.0 0.00 0.00 0.00 91 1009.0
20260905125447 83 214 0.0 0.0 0.00 0.00 0.00 91 1008.9
20260905124943 82 213 0.0 0.0 0.00 0.00 0.00 92 1009.2
20260905124440 81 214 0.0 0.0 0.00 0.00 0.00 95 1009.0
20260905123935 79 213 0.0 0.0 0.00 0.00 0.00 96 1008.8
20260905123431 78 213 0.0 0.0 0.00 0.00 0.00 99 1008.9
20260905122926 77 213 0.0 0.0 0.00 0.00 0.00 99 1008.8
20260905122426 76 213 0.0 0.0 0.00 0.00 0.00 99 1009.1
20260905121921 75 213 0.0 0.0 0.00 0.00 0.00 99 1008.9
20260905121417 75 266 0.0 0.0 0.00 0.00 0.00 99 1009.0
20260905120915 75 268 0.0 0.0 0.00 0.00 0.00 99 1008.8
20260905120410 75 268 0.0 0.0 0.00 0.00 0.00 99 1008.8